Time,TemperatureF,DewpointF,PressureIn,WindDirection,WindDirectionDegrees,WindSpeedMPH,WindSpeedGustMPH,Humidity,HourlyPrecipIn,Conditions,Clouds,dailyrainin,SolarRadiationWatts/m^2,SoftwareType,DateUTC
2013-05-24 00:00:00,66.1,65.2,29.72,NE,44,1.0,1.0,97,0.00,,,0.00,520,WeatherCatV1.14B232,2013-05-24 04:00:00,
2013-05-24 00:01:00,66.1,65.2,29.72,NE,44,0.0,1.0,97,0.00,,,0.00,520,WeatherCatV1.14B232,2013-05-24 04:01:00,
2013-05-24 00:06:00,66.1,65.2,29.72,NE,44,0.0,1.0,97,0.00,,,0.00,520,WeatherCatV1.14B232,2013-05-24 04:06:00,
2013-05-24 00:11:00,66.1,65.2,29.72,NE,44,1.0,1.0,97,0.00,,,0.00,520,WeatherCatV1.14B232,2013-05-24 04:11:00,
2013-05-24 00:16:00,66.1,65.2,29.71,NE,44,0.0,0.0,97,0.00,,,0.00,520,WeatherCatV1.14B232,2013-05-24 04:16:00,
2013-05-24 00:21:00,66.0,65.1,29.71,NE,44,0.0,1.0,97,0.00,,,0.00,520,WeatherCatV1.14B232,2013-05-24 04:21:00,
2013-05-24 00:26:00,66.0,65.1,29.71,NE,44,0.0,1.0,97,0.00,,,0.00,520,WeatherCatV1.14B232,2013-05-24 04:26:00,
2013-05-24 00:31:00,66.0,65.1,29.71,NE,44,0.0,0.0,97,0.00,,,0.00,520,WeatherCatV1.14B232,2013-05-24 04:31:00,
2013-05-24 00:36:00,66.0,65.1,29.70,NE,44,0.0,0.0,97,0.00,,,0.00,520,WeatherCatV1.14B232,2013-05-24 04:36:00,
2013-05-24 00:41:00,66.0,65.1,29.72,NE,44,1.0,2.0,97,0.00,,,0.00,520,WeatherCatV1.14B232,2013-05-24 04:41:00,
2013-05-24 00:46:00,65.3,64.1,29.72,NE,44,1.0,5.0,96,0.00,,,0.00,520,WeatherCatV1.14B232,2013-05-24 04:46:00,
2013-05-24 00:51:00,64.1,62.6,29.72,NE,44,1.0,4.0,95,0.92,,,0.07,520,WeatherCatV1.14B232,2013-05-24 04:51:00,
2013-05-24 00:56:00,63.1,61.6,29.72,NE,44,1.0,1.0,95,0.19,,,0.09,520,WeatherCatV1.14B232,2013-05-24 04:56:00,
2013-05-24 01:01:00,62.6,61.1,29.73,NE,44,0.0,1.0,95,0.16,,,0.11,520,WeatherCatV1.14B232,2013-05-24 05:01:00,
2013-05-24 01:06:00,62.4,60.9,29.72,NE,44,0.0,1.0,95,0.46,,,0.13,520,WeatherCatV1.14B232,2013-05-24 05:06:00,
2013-05-24 01:11:00,62.3,61.1,29.72,NE,44,0.0,0.0,96,0.79,,,0.19,520,WeatherCatV1.14B232,2013-05-24 05:11:00,
2013-05-24 01:16:00,62.2,61.0,29.72,NE,44,0.0,0.0,96,0.32,,,0.22,520,WeatherCatV1.14B232,2013-05-24 05:16:00,
2013-05-24 01:21:00,62.0,60.8,29.71,NE,44,0.0,1.0,96,0.31,,,0.24,520,WeatherCatV1.14B232,2013-05-24 05:21:00,
2013-05-24 01:26:00,61.9,60.7,29.71,NE,44,0.0,0.0,96,0.09,,,0.24,520,WeatherCatV1.14B232,2013-05-24 05:26:00,
2013-05-24 01:31:00,61.7,60.5,29.71,NE,44,0.0,0.0,96,0.09,,,0.25,520,WeatherCatV1.14B232,2013-05-24 05:31:00,
2013-05-24 01:36:00,61.6,60.4,29.70,NE,44,0.0,0.0,96,0.06,,,0.25,520,WeatherCatV1.14B232,2013-05-24 05:36:00,
2013-05-24 01:41:00,61.5,60.3,29.70,NE,44,0.0,0.0,96,0.04,,,0.25,520,WeatherCatV1.14B232,2013-05-24 05:41:00,
2013-05-24 01:46:00,61.5,60.3,29.70,NE,44,0.0,0.0,96,0.00,,,0.25,520,WeatherCatV1.14B232,2013-05-24 05:46:00,
2013-05-24 01:51:00,61.5,60.3,29.70,NE,44,0.0,0.0,96,0.00,,,0.26,520,WeatherCatV1.14B232,2013-05-24 05:51:00,
2013-05-24 01:56:00,61.5,60.3,29.69,NE,44,0.0,0.0,96,0.12,,,0.27,520,WeatherCatV1.14B232,2013-05-24 05:56:00,
2013-05-24 02:01:00,61.5,60.3,29.69,NE,44,0.0,0.0,96,0.21,,,0.29,520,WeatherCatV1.14B232,2013-05-24 06:01:00,
2013-05-24 02:06:00,61.4,60.2,29.69,NE,44,0.0,0.0,96,0.31,,,0.30,520,WeatherCatV1.14B232,2013-05-24 06:06:00,
2013-05-24 02:11:00,61.4,60.2,29.68,NE,44,0.0,0.0,96,0.30,,,0.33,520,WeatherCatV1.14B232,2013-05-24 06:11:00,
2013-05-24 02:16:00,61.5,60.6,29.68,NE,44,0.0,1.0,97,0.12,,,0.34,520,WeatherCatV1.14B232,2013-05-24 06:16:00,
2013-05-24 02:21:00,61.5,60.6,29.67,NE,44,0.0,1.0,97,0.09,,,0.34,520,WeatherCatV1.14B232,2013-05-24 06:21:00,
2013-05-24 02:26:00,61.5,60.6,29.68,NE,44,0.0,1.0,97,0.05,,,0.34,520,WeatherCatV1.14B232,2013-05-24 06:26:00,
2013-05-24 02:31:00,61.4,60.5,29.68,NE,44,0.0,1.0,97,0.04,,,0.34,520,WeatherCatV1.14B232,2013-05-24 06:31:00,
2013-05-24 02:36:00,61.5,60.6,29.67,NE,44,0.0,0.0,97,0.00,,,0.34,520,WeatherCatV1.14B232,2013-05-24 06:36:00,
2013-05-24 02:41:00,61.4,60.5,29.66,NE,44,0.0,0.0,97,0.00,,,0.34,520,WeatherCatV1.14B232,2013-05-24 06:41:00,
2013-05-24 02:46:00,61.4,60.5,29.67,NE,44,0.0,0.0,97,0.00,,,0.34,520,WeatherCatV1.14B232,2013-05-24 06:46:00,
2013-05-24 02:51:00,61.3,60.4,29.67,NE,44,0.0,0.0,97,0.00,,,0.34,520,WeatherCatV1.14B232,2013-05-24 06:51:00,
2013-05-24 02:55:00,61.3,60.4,29.66,NE,44,0.0,1.0,97,0.00,,,0.34,520,WeatherCatV1.14B232,2013-05-24 06:55:00,
2013-05-24 03:00:00,61.3,60.4,29.65,NE,44,0.0,0.0,97,0.00,,,0.34,520,WeatherCatV1.14B232,2013-05-24 07:00:00,
2013-05-24 03:05:00,61.2,60.3,29.65,NE,44,0.0,0.0,97,0.00,,,0.34,520,WeatherCatV1.14B232,2013-05-24 07:05:00,
2013-05-24 03:10:00,61.2,60.3,29.66,NE,44,0.0,0.0,97,0.00,,,0.34,520,WeatherCatV1.14B232,2013-05-24 07:10:00,
2013-05-24 03:15:00,61.2,60.3,29.66,NE,44,0.0,0.0,97,0.00,,,0.34,520,WeatherCatV1.14B232,2013-05-24 07:15:00,
2013-05-24 03:20:00,61.2,60.3,29.66,NE,44,0.0,0.0,97,0.00,,,0.34,520,WeatherCatV1.14B232,2013-05-24 07:20:00,
2013-05-24 03:25:00,61.3,60.4,29.66,NE,44,0.0,0.0,97,0.00,,,0.34,520,WeatherCatV1.14B232,2013-05-24 07:25:00,
2013-05-24 03:30:00,61.2,60.3,29.66,NE,44,0.0,0.0,97,0.00,,,0.34,520,WeatherCatV1.14B232,2013-05-24 07:30:00,
2013-05-24 03:35:00,61.3,60.4,29.66,NE,44,0.0,0.0,97,0.00,,,0.35,520,WeatherCatV1.14B232,2013-05-24 07:35:00,
2013-05-24 03:40:00,61.2,60.3,29.66,NE,44,0.0,0.0,97,0.00,,,0.35,520,WeatherCatV1.14B232,2013-05-24 07:40:00,
2013-05-24 03:45:00,61.2,60.3,29.66,NE,44,0.0,0.0,97,0.00,,,0.35,520,WeatherCatV1.14B232,2013-05-24 07:45:00,
2013-05-24 03:50:00,61.2,60.3,29.67,NE,44,0.0,0.0,97,0.00,,,0.35,520,WeatherCatV1.14B232,2013-05-24 07:50:00,
2013-05-24 03:55:00,61.2,60.3,29.67,NE,44,0.0,0.0,97,0.00,,,0.35,520,WeatherCatV1.14B232,2013-05-24 07:55:00,
2013-05-24 04:00:00,61.2,60.3,29.67,NE,44,0.0,0.0,97,0.00,,,0.35,520,WeatherCatV1.14B232,2013-05-24 08:00:00,
2013-05-24 04:05:00,61.3,60.4,29.67,NE,44,0.0,0.0,97,0.00,,,0.35,520,WeatherCatV1.14B232,2013-05-24 08:05:00,
2013-05-24 04:10:00,61.2,60.3,29.68,NE,44,0.0,1.0,97,0.00,,,0.35,520,WeatherCatV1.14B232,2013-05-24 08:10:00,
2013-05-24 04:15:00,61.2,60.3,29.67,NE,44,0.0,0.0,97,0.00,,,0.35,520,WeatherCatV1.14B232,2013-05-24 08:15:00,
2013-05-24 04:20:00,61.1,60.2,29.67,NE,44,0.0,1.0,97,0.00,,,0.35,520,WeatherCatV1.14B232,2013-05-24 08:20:00,
2013-05-24 04:25:00,61.0,60.1,29.67,NE,44,0.0,0.0,97,0.00,,,0.35,520,WeatherCatV1.14B232,2013-05-24 08:25:00,
2013-05-24 04:30:00,61.0,60.1,29.68,NE,44,0.0,0.0,97,0.00,,,0.35,520,WeatherCatV1.14B232,2013-05-24 08:30:00,
2013-05-24 04:35:00,61.0,60.1,29.68,NE,44,0.0,0.0,97,0.00,,,0.35,520,WeatherCatV1.14B232,2013-05-24 08:35:00,
2013-05-24 04:40:00,60.9,60.0,29.68,NE,44,0.0,0.0,97,0.00,,,0.35,520,WeatherCatV1.14B232,2013-05-24 08:40:00,
2013-05-24 04:45:00,60.9,60.0,29.68,NE,44,0.0,1.0,97,0.00,,,0.35,520,WeatherCatV1.14B232,2013-05-24 08:45:00,
2013-05-24 04:50:00,60.9,60.0,29.68,NE,44,0.0,0.0,97,0.00,,,0.35,520,WeatherCatV1.14B232,2013-05-24 08:50:00,
2013-05-24 04:55:00,61.0,60.1,29.69,NE,44,0.0,1.0,97,0.00,,,0.35,520,WeatherCatV1.14B232,2013-05-24 08:55:00,
2013-05-24 05:00:00,61.0,60.1,29.68,NE,44,0.0,0.0,97,0.00,,,0.35,520,WeatherCatV1.14B232,2013-05-24 09:00:00,
2013-05-24 05:05:00,60.9,60.0,29.68,NE,44,0.0,0.0,97,0.00,,,0.35,520,WeatherCatV1.14B232,2013-05-24 09:05:00,
2013-05-24 05:10:00,60.9,60.0,29.68,NE,44,0.0,0.0,97,0.00,,,0.35,520,WeatherCatV1.14B232,2013-05-24 09:10:00,
2013-05-24 05:15:00,60.9,60.0,29.68,NE,44,0.0,0.0,97,0.00,,,0.35,520,WeatherCatV1.14B232,2013-05-24 09:15:00,
2013-05-24 05:20:00,60.8,59.9,29.68,NE,44,0.0,0.0,97,0.00,,,0.35,520,WeatherCatV1.14B232,2013-05-24 09:20:00,
2013-05-24 05:25:00,60.8,59.9,29.68,NE,44,0.0,0.0,97,0.00,,,0.35,520,WeatherCatV1.14B232,2013-05-24 09:25:00,
2013-05-24 05:30:00,60.8,59.9,29.68,NE,44,0.0,0.0,97,0.00,,,0.35,520,WeatherCatV1.14B232,2013-05-24 09:30:00,
2013-05-24 05:35:00,60.7,59.8,29.68,NE,44,0.0,0.0,97,0.00,,,0.35,520,WeatherCatV1.14B232,2013-05-24 09:35:00,
2013-05-24 05:40:00,60.7,59.8,29.68,NE,44,0.0,0.0,97,0.00,,,0.35,520,WeatherCatV1.14B232,2013-05-24 09:40:00,
2013-05-24 05:45:00,60.7,59.8,29.69,NE,44,0.0,0.0,97,0.00,,,0.35,520,WeatherCatV1.14B232,2013-05-24 09:45:00,
2013-05-24 05:50:00,60.7,59.8,29.69,NE,44,0.0,0.0,97,0.00,,,0.35,520,WeatherCatV1.14B232,2013-05-24 09:50:00,
2013-05-24 05:55:00,60.7,59.8,29.69,NE,44,0.0,0.0,97,0.00,,,0.35,520,WeatherCatV1.14B232,2013-05-24 09:55:00,
2013-05-24 06:00:00,60.7,59.8,29.68,NE,44,0.0,1.0,97,0.00,,,0.35,520,WeatherCatV1.14B232,2013-05-24 10:00:00,
2013-05-24 06:05:00,60.6,59.7,29.69,NE,44,0.0,0.0,97,0.00,,,0.35,520,WeatherCatV1.14B232,2013-05-24 10:05:00,
2013-05-24 06:10:00,60.6,59.7,29.68,NE,44,0.0,0.0,97,0.00,,,0.35,520,WeatherCatV1.14B232,2013-05-24 10:10:00,
2013-05-24 06:15:00,60.7,59.8,29.69,NE,44,0.0,0.0,97,0.00,,,0.35,520,WeatherCatV1.14B232,2013-05-24 10:15:00,
2013-05-24 06:20:00,60.7,59.8,29.69,NE,44,0.0,0.0,97,0.00,,,0.35,520,WeatherCatV1.14B232,2013-05-24 10:20:00,
2013-05-24 06:25:00,60.7,59.8,29.69,NE,44,0.0,0.0,97,0.00,,,0.35,520,WeatherCatV1.14B232,2013-05-24 10:25:00,
2013-05-24 06:30:00,60.8,59.9,29.69,NE,44,0.0,0.0,97,0.00,,,0.35,520,WeatherCatV1.14B232,2013-05-24 10:30:00,
2013-05-24 06:35:00,60.9,60.0,29.69,NE,44,0.0,0.0,97,0.00,,,0.35,520,WeatherCatV1.14B232,2013-05-24 10:35:00,
2013-05-24 06:40:00,61.0,60.1,29.69,NE,44,0.0,0.0,97,0.00,,,0.35,520,WeatherCatV1.14B232,2013-05-24 10:40:00,
2013-05-24 06:45:00,61.1,60.2,29.69,NE,44,0.0,0.0,97,0.00,,,0.35,520,WeatherCatV1.14B232,2013-05-24 10:45:00,
2013-05-24 06:50:00,61.2,60.3,29.69,NE,44,0.0,0.0,97,0.00,,,0.35,520,WeatherCatV1.14B232,2013-05-24 10:50:00,
2013-05-24 06:55:00,61.2,60.3,29.70,NE,44,0.0,0.0,97,0.00,,,0.35,520,WeatherCatV1.14B232,2013-05-24 10:55:00,
2013-05-24 07:00:00,61.3,60.4,29.70,NE,44,0.0,0.0,97,0.00,,,0.35,520,WeatherCatV1.14B232,2013-05-24 11:00:00,
2013-05-24 07:05:00,61.4,60.5,29.70,NE,44,0.0,0.0,97,0.00,,,0.35,520,WeatherCatV1.14B232,2013-05-24 11:05:00,
2013-05-24 07:10:00,61.4,60.5,29.70,NE,44,0.0,1.0,97,0.00,,,0.35,520,WeatherCatV1.14B232,2013-05-24 11:10:00,
2013-05-24 07:15:00,61.6,60.7,29.70,NE,44,0.0,0.0,97,0.00,,,0.35,520,WeatherCatV1.14B232,2013-05-24 11:15:00,
2013-05-24 07:20:00,61.7,60.8,29.70,NE,44,0.0,0.0,97,0.00,,,0.35,520,WeatherCatV1.14B232,2013-05-24 11:20:00,
2013-05-24 07:25:00,61.7,60.8,29.71,NE,44,0.0,0.0,97,0.00,,,0.35,520,WeatherCatV1.14B232,2013-05-24 11:25:00,
2013-05-24 07:30:00,61.8,60.9,29.71,NE,44,0.0,0.0,97,0.00,,,0.35,520,WeatherCatV1.14B232,2013-05-24 11:30:00,
2013-05-24 07:35:00,61.8,60.9,29.71,NE,44,0.0,0.0,97,0.00,,,0.35,520,WeatherCatV1.14B232,2013-05-24 11:35:00,
2013-05-24 07:40:00,61.9,61.0,29.70,NE,44,0.0,0.0,97,0.00,,,0.35,520,WeatherCatV1.14B232,2013-05-24 11:40:00,
2013-05-24 07:45:00,62.1,61.2,29.70,NE,44,0.0,0.0,97,0.00,,,0.35,520,WeatherCatV1.14B232,2013-05-24 11:45:00,
2013-05-24 07:50:00,62.2,61.3,29.71,NE,44,0.0,0.0,97,0.00,,,0.35,520,WeatherCatV1.14B232,2013-05-24 11:50:00,
2013-05-24 07:55:00,62.1,61.2,29.71,NE,44,0.0,0.0,97,0.00,,,0.35,520,WeatherCatV1.14B232,2013-05-24 11:55:00,
2013-05-24 08:00:00,62.2,61.3,29.71,NE,44,0.0,0.0,97,0.00,,,0.35,520,WeatherCatV1.14B232,2013-05-24 12:00:00,
2013-05-24 08:05:00,62.5,61.6,29.72,NE,44,0.0,1.0,97,0.00,,,0.35,520,WeatherCatV1.14B232,2013-05-24 12:05:00,
2013-05-24 08:10:00,62.7,61.8,29.71,NE,44,0.0,0.0,97,0.00,,,0.35,520,WeatherCatV1.14B232,2013-05-24 12:10:00,
2013-05-24 08:15:00,62.8,61.9,29.71,NE,44,0.0,0.0,97,0.00,,,0.35,520,WeatherCatV1.14B232,2013-05-24 12:15:00,
2013-05-24 08:20:00,62.7,61.8,29.71,NE,44,0.0,0.0,97,0.00,,,0.35,520,WeatherCatV1.14B232,2013-05-24 12:20:00,
2013-05-24 08:25:00,62.7,61.8,29.72,NE,44,0.0,0.0,97,0.00,,,0.35,520,WeatherCatV1.14B232,2013-05-24 12:25:00,
2013-05-24 08:30:00,62.7,61.8,29.72,NE,44,0.0,0.0,97,0.00,,,0.35,520,WeatherCatV1.14B232,2013-05-24 12:30:00,
2013-05-24 08:35:00,62.7,61.8,29.72,NE,44,0.0,1.0,97,0.00,,,0.35,520,WeatherCatV1.14B232,2013-05-24 12:35:00,
2013-05-24 08:40:00,62.7,61.8,29.72,NE,44,0.0,0.0,97,0.00,,,0.35,520,WeatherCatV1.14B232,2013-05-24 12:40:00,
2013-05-24 08:45:00,62.7,61.8,29.72,NE,44,0.0,0.0,97,0.00,,,0.35,520,WeatherCatV1.14B232,2013-05-24 12:45:00,
2013-05-24 08:50:00,62.5,61.6,29.73,NE,44,1.0,3.0,97,0.00,,,0.35,520,WeatherCatV1.14B232,2013-05-24 12:50:00,
2013-05-24 08:55:00,60.8,59.4,29.73,NE,44,1.0,3.0,95,0.00,,,0.35,520,WeatherCatV1.14B232,2013-05-24 12:55:00,
2013-05-24 09:00:00,59.2,57.5,29.74,NE,44,0.0,2.0,94,0.00,,,0.35,520,WeatherCatV1.14B232,2013-05-24 13:00:00,
2013-05-24 09:05:00,58.1,56.4,29.74,NE,44,1.0,3.0,94,0.00,,,0.35,520,WeatherCatV1.14B232,2013-05-24 13:05:00,
2013-05-24 09:10:00,57.0,55.3,29.75,NE,44,0.0,4.0,94,0.00,,,0.35,520,WeatherCatV1.14B232,2013-05-24 13:10:00,
2013-05-24 09:15:00,56.5,55.1,29.75,NE,44,1.0,2.0,95,0.00,,,0.35,520,WeatherCatV1.14B232,2013-05-24 13:15:00,
2013-05-24 09:20:00,55.7,54.0,29.75,NE,44,1.0,4.0,94,0.00,,,0.35,520,WeatherCatV1.14B232,2013-05-24 13:20:00,
2013-05-24 09:25:00,54.9,53.2,29.75,NE,44,1.0,2.0,94,0.00,,,0.35,520,WeatherCatV1.14B232,2013-05-24 13:25:00,
2013-05-24 09:30:00,54.8,53.4,29.75,NE,44,0.0,4.0,95,0.00,,,0.35,520,WeatherCatV1.14B232,2013-05-24 13:30:00,
2013-05-24 09:35:00,54.5,53.1,29.76,NE,44,1.0,2.0,95,0.00,,,0.35,520,WeatherCatV1.14B232,2013-05-24 13:35:00,
2013-05-24 09:40:00,54.0,52.3,29.76,NE,44,0.0,2.0,94,0.00,,,0.35,520,WeatherCatV1.14B232,2013-05-24 13:40:00,
2013-05-24 09:45:00,53.9,52.2,29.76,NE,44,0.0,3.0,94,0.00,,,0.35,520,WeatherCatV1.14B232,2013-05-24 13:45:00,
2013-05-24 09:50:00,53.9,52.2,29.76,NE,44,0.0,2.0,94,0.00,,,0.35,520,WeatherCatV1.14B232,2013-05-24 13:50:00,
2013-05-24 09:55:00,53.7,52.0,29.76,NE,44,0.0,2.0,94,0.00,,,0.35,520,WeatherCatV1.14B232,2013-05-24 13:55:00,
2013-05-24 10:00:00,53.7,52.0,29.76,NE,44,1.0,1.0,94,0.00,,,0.35,520,WeatherCatV1.14B232,2013-05-24 14:00:00,
2013-05-24 10:05:00,53.5,51.5,29.76,NE,44,6.0,6.0,93,0.00,,,0.35,520,WeatherCatV1.14B232,2013-05-24 14:05:00,
2013-05-24 10:10:00,53.5,51.5,29.76,NE,44,1.0,5.0,93,0.00,,,0.35,520,WeatherCatV1.14B232,2013-05-24 14:10:00,
2013-05-24 10:15:00,53.2,50.9,29.76,NE,44,2.0,3.0,92,0.00,,,0.35,520,WeatherCatV1.14B232,2013-05-24 14:15:00,
2013-05-24 10:20:00,53.2,50.9,29.76,NE,44,1.0,1.0,92,0.00,,,0.35,520,WeatherCatV1.14B232,2013-05-24 14:20:00,
2013-05-24 10:25:00,53.2,51.2,29.77,NE,44,0.0,2.0,93,0.00,,,0.35,520,WeatherCatV1.14B232,2013-05-24 14:25:00,
2013-05-24 10:30:00,52.9,50.3,29.77,NE,44,1.0,1.0,91,0.00,,,0.35,520,WeatherCatV1.14B232,2013-05-24 14:30:00,
2013-05-24 10:35:00,52.7,50.1,29.77,NE,44,3.0,3.0,91,0.00,,,0.35,520,WeatherCatV1.14B232,2013-05-24 14:35:00,
2013-05-24 10:40:00,52.6,49.8,29.77,NE,44,1.0,1.0,90,0.00,,,0.35,520,WeatherCatV1.14B232,2013-05-24 14:40:00,
2013-05-24 10:45:00,52.8,50.5,29.77,NE,44,1.0,4.0,92,0.00,,,0.35,520,WeatherCatV1.14B232,2013-05-24 14:45:00,
2013-05-24 10:50:00,53.1,50.5,29.76,NE,44,0.0,3.0,91,0.00,,,0.35,520,WeatherCatV1.14B232,2013-05-24 14:50:00,
2013-05-24 10:55:00,53.3,50.4,29.76,NE,44,3.0,4.0,90,0.00,,,0.35,520,WeatherCatV1.14B232,2013-05-24 14:55:00,
2013-05-24 11:00:00,53.4,50.2,29.77,NE,44,1.0,10.0,89,0.00,,,0.35,520,WeatherCatV1.14B232,2013-05-24 15:00:00,
2013-05-24 11:05:00,53.4,50.5,29.77,NE,44,2.0,4.0,90,0.00,,,0.35,520,WeatherCatV1.14B232,2013-05-24 15:05:00,
2013-05-24 11:10:00,53.3,49.8,29.78,NE,44,1.0,5.0,88,0.00,,,0.35,520,WeatherCatV1.14B232,2013-05-24 15:10:00,
2013-05-24 11:15:00,53.1,49.6,29.77,NE,44,1.0,6.0,88,0.00,,,0.35,520,WeatherCatV1.14B232,2013-05-24 15:15:00,
2013-05-24 11:20:00,53.0,49.2,29.78,NE,44,0.0,2.0,87,0.00,,,0.35,520,WeatherCatV1.14B232,2013-05-24 15:20:00,
2013-05-24 11:25:00,53.0,49.5,29.78,NE,44,1.0,3.0,88,0.00,,,0.35,520,WeatherCatV1.14B232,2013-05-24 15:25:00,
2013-05-24 11:30:00,53.0,49.2,29.78,NE,44,3.0,5.0,87,0.00,,,0.35,520,WeatherCatV1.14B232,2013-05-24 15:30:00,
2013-05-24 11:35:00,52.8,49.0,29.77,NE,44,2.0,5.0,87,0.00,,,0.35,520,WeatherCatV1.14B232,2013-05-24 15:35:00,
2013-05-24 11:40:00,52.7,48.6,29.78,NE,44,1.0,3.0,86,0.00,,,0.35,520,WeatherCatV1.14B232,2013-05-24 15:40:00,
2013-05-24 11:45:00,52.4,48.0,29.78,NE,44,2.0,2.0,85,0.00,,,0.35,520,WeatherCatV1.14B232,2013-05-24 15:45:00,
2013-05-24 11:50:00,52.1,47.7,29.78,NE,44,1.0,7.0,85,0.00,,,0.35,520,WeatherCatV1.14B232,2013-05-24 15:50:00,
2013-05-24 11:55:00,51.8,47.4,29.78,NE,44,0.0,3.0,85,0.00,,,0.35,520,WeatherCatV1.14B232,2013-05-24 15:55:00,
2013-05-24 12:00:00,51.4,47.0,29.78,NE,44,3.0,5.0,85,0.00,,,0.35,520,WeatherCatV1.14B232,2013-05-24 16:00:00,
2013-05-24 12:05:00,51.1,47.4,29.78,NE,44,5.0,6.0,87,0.00,,,0.35,520,WeatherCatV1.14B232,2013-05-24 16:05:00,
2013-05-24 12:10:00,50.8,47.1,29.79,NE,44,1.0,2.0,87,0.00,,,0.35,520,WeatherCatV1.14B232,2013-05-24 16:10:00,
2013-05-24 12:15:00,50.5,46.8,29.79,NE,44,3.0,3.0,87,0.00,,,0.35,520,WeatherCatV1.14B232,2013-05-24 16:15:00,
2013-05-24 12:20:00,50.3,46.6,29.80,NE,44,0.0,4.0,87,0.00,,,0.35,520,WeatherCatV1.14B232,2013-05-24 16:20:00,
2013-05-24 12:25:00,50.1,46.4,29.80,NE,44,1.0,5.0,87,0.00,,,0.35,520,WeatherCatV1.14B232,2013-05-24 16:25:00,
2013-05-24 12:30:00,49.9,46.8,29.80,NE,44,0.0,1.0,89,0.00,,,0.35,520,WeatherCatV1.14B232,2013-05-24 16:30:00,
2013-05-24 12:35:00,49.6,46.5,29.80,NE,44,0.0,4.0,89,0.00,,,0.35,520,WeatherCatV1.14B232,2013-05-24 16:35:00,
2013-05-24 12:40:00,49.4,47.2,29.81,NE,44,0.0,2.0,92,0.22,,,0.37,520,WeatherCatV1.14B232,2013-05-24 16:40:00,
2013-05-24 12:45:00,49.1,46.9,29.81,NE,44,2.0,3.0,92,0.31,,,0.39,520,WeatherCatV1.14B232,2013-05-24 16:45:00,
2013-05-24 12:50:00,48.6,46.7,29.80,NE,44,1.0,4.0,93,0.28,,,0.42,520,WeatherCatV1.14B232,2013-05-24 16:50:00,
2013-05-24 12:55:00,48.4,46.5,29.80,NE,44,5.0,5.0,93,0.13,,,0.43,520,WeatherCatV1.14B232,2013-05-24 16:55:00,
2013-05-24 13:00:00,48.0,46.1,29.80,NE,44,1.0,5.0,93,0.11,,,0.43,520,WeatherCatV1.14B232,2013-05-24 17:00:00,
2013-05-24 13:05:00,48.0,46.1,29.81,NE,44,1.0,2.0,93,0.07,,,0.44,520,WeatherCatV1.14B232,2013-05-24 17:05:00,
2013-05-24 13:10:00,47.9,46.3,29.81,NE,44,0.0,7.0,94,0.25,,,0.45,520,WeatherCatV1.14B232,2013-05-24 17:10:00,
2013-05-24 13:15:00,47.7,46.1,29.81,NE,44,1.0,6.0,94,0.32,,,0.48,520,WeatherCatV1.14B232,2013-05-24 17:15:00,
2013-05-24 13:20:00,47.6,46.0,29.81,NE,44,2.0,2.0,94,0.43,,,0.51,520,WeatherCatV1.14B232,2013-05-24 17:20:00,
2013-05-24 13:25:00,47.5,45.9,29.82,NE,44,3.0,3.0,94,0.46,,,0.56,520,WeatherCatV1.14B232,2013-05-24 17:25:00,
2013-05-24 13:30:00,47.4,46.0,29.82,NE,44,2.0,2.0,95,0.34,,,0.58,520,WeatherCatV1.14B232,2013-05-24 17:30:00,
2013-05-24 13:35:00,47.1,45.5,29.82,NE,44,1.0,8.0,94,0.35,,,0.62,520,WeatherCatV1.14B232,2013-05-24 17:35:00,
2013-05-24 13:40:00,47.1,45.7,29.82,NE,44,1.0,4.0,95,0.33,,,0.64,520,WeatherCatV1.14B232,2013-05-24 17:40:00,
2013-05-24 13:45:00,47.2,45.8,29.81,NE,44,2.0,2.0,95,0.14,,,0.66,520,WeatherCatV1.14B232,2013-05-24 17:45:00,
2013-05-24 13:50:00,47.4,46.0,29.81,NE,44,1.0,3.0,95,0.16,,,0.67,520,WeatherCatV1.14B232,2013-05-24 17:50:00,
2013-05-24 13:55:00,47.7,46.3,29.82,NE,44,2.0,2.0,95,0.17,,,0.68,520,WeatherCatV1.14B232,2013-05-24 17:55:00,
2013-05-24 14:00:00,47.8,46.4,29.82,NE,44,2.0,7.0,95,0.07,,,0.68,520,WeatherCatV1.14B232,2013-05-24 18:00:00,
2013-05-24 14:05:00,47.8,46.4,29.81,NE,44,1.0,5.0,95,0.07,,,0.69,520,WeatherCatV1.14B232,2013-05-24 18:05:00,
2013-05-24 14:11:00,48.0,46.6,29.81,NE,44,2.0,4.0,95,0.06,,,0.69,520,WeatherCatV1.14B232,2013-05-24 18:11:00,
2013-05-24 14:16:00,48.1,46.7,29.81,NE,44,0.0,3.0,95,0.05,,,0.70,520,WeatherCatV1.14B232,2013-05-24 18:16:00,
2013-05-24 14:21:00,48.3,46.9,29.82,NE,44,2.0,3.0,95,0.05,,,0.70,520,WeatherCatV1.14B232,2013-05-24 18:21:00,
2013-05-24 14:26:00,48.2,46.8,29.81,NE,44,2.0,3.0,95,0.05,,,0.70,520,WeatherCatV1.14B232,2013-05-24 18:26:00,
2013-05-24 14:31:00,48.3,46.9,29.81,NE,44,2.0,2.0,95,0.00,,,0.70,520,WeatherCatV1.14B232,2013-05-24 18:31:00,
2013-05-24 14:36:00,48.5,47.1,29.81,NE,44,2.0,3.0,95,0.00,,,0.70,520,WeatherCatV1.14B232,2013-05-24 18:36:00,
2013-05-24 14:41:00,48.7,47.3,29.81,NE,44,1.0,4.0,95,0.00,,,0.71,520,WeatherCatV1.14B232,2013-05-24 18:41:00,
2013-05-24 14:46:00,48.7,47.3,29.82,NE,44,1.0,2.0,95,0.00,,,0.71,520,WeatherCatV1.14B232,2013-05-24 18:46:00,
2013-05-24 14:51:00,48.7,47.3,29.82,NE,44,1.0,4.0,95,0.00,,,0.71,520,WeatherCatV1.14B232,2013-05-24 18:51:00,
2013-05-24 14:56:00,48.8,47.4,29.82,NE,44,1.0,3.0,95,0.04,,,0.72,520,WeatherCatV1.14B232,2013-05-24 18:56:00,
2013-05-24 15:01:00,48.9,47.5,29.83,NE,44,1.0,2.0,95,0.04,,,0.72,520,WeatherCatV1.14B232,2013-05-24 19:01:00,
2013-05-24 15:06:00,48.8,47.4,29.83,NE,44,2.0,3.0,95,0.04,,,0.72,520,WeatherCatV1.14B232,2013-05-24 19:06:00,
2013-05-24 15:11:00,48.9,47.5,29.83,NE,44,1.0,3.0,95,0.00,,,0.72,520,WeatherCatV1.14B232,2013-05-24 19:11:00,
2013-05-24 15:16:00,48.8,47.4,29.83,NE,44,1.0,4.0,95,0.00,,,0.73,520,WeatherCatV1.14B232,2013-05-24 19:16:00,
2013-05-24 15:21:00,48.8,47.4,29.83,NE,44,1.0,2.0,95,0.00,,,0.73,520,WeatherCatV1.14B232,2013-05-24 19:21:00,
2013-05-24 15:26:00,48.6,47.2,29.83,NE,44,1.0,7.0,95,0.00,,,0.73,520,WeatherCatV1.14B232,2013-05-24 19:26:00,
2013-05-24 15:31:00,48.6,47.2,29.83,NE,44,1.0,3.0,95,0.00,,,0.73,520,WeatherCatV1.14B232,2013-05-24 19:31:00,
2013-05-24 15:36:00,48.3,46.9,29.84,NE,44,1.0,2.0,95,0.00,,,0.73,520,WeatherCatV1.14B232,2013-05-24 19:36:00,
2013-05-24 15:41:00,48.1,46.5,29.84,NE,44,1.0,4.0,94,0.00,,,0.73,520,WeatherCatV1.14B232,2013-05-24 19:41:00,
2013-05-24 15:46:00,48.2,46.8,29.83,NE,44,0.0,1.0,95,0.00,,,0.74,520,WeatherCatV1.14B232,2013-05-24 19:46:00,
2013-05-24 15:51:00,48.2,46.8,29.82,NE,44,3.0,3.0,95,0.19,,,0.75,520,WeatherCatV1.14B232,2013-05-24 19:51:00,
2013-05-24 15:56:00,48.1,46.7,29.82,NE,44,3.0,4.0,95,0.12,,,0.76,520,WeatherCatV1.14B232,2013-05-24 19:56:00,
2013-05-24 16:01:00,48.1,46.7,29.82,NE,44,0.0,1.0,95,0.07,,,0.76,520,WeatherCatV1.14B232,2013-05-24 20:01:00,
2013-05-24 16:06:00,47.9,46.5,29.82,NE,44,4.0,6.0,95,0.07,,,0.77,520,WeatherCatV1.14B232,2013-05-24 20:06:00,
2013-05-24 16:11:00,47.6,46.0,29.82,NE,44,1.0,5.0,94,0.06,,,0.77,520,WeatherCatV1.14B232,2013-05-24 20:11:00,
2013-05-24 16:16:00,47.7,46.3,29.83,NE,44,2.0,4.0,95,0.05,,,0.78,520,WeatherCatV1.14B232,2013-05-24 20:16:00,
2013-05-24 16:21:00,47.5,45.9,29.83,NE,44,1.0,2.0,94,0.05,,,0.78,520,WeatherCatV1.14B232,2013-05-24 20:21:00,
2013-05-24 16:26:00,47.5,46.1,29.84,NE,44,5.0,6.0,95,0.05,,,0.78,520,WeatherCatV1.14B232,2013-05-24 20:26:00,
2013-05-24 16:31:00,47.3,45.7,29.84,NE,44,0.0,2.0,94,0.04,,,0.79,520,WeatherCatV1.14B232,2013-05-24 20:31:00,
2013-05-24 16:36:00,47.3,45.7,29.84,NE,44,4.0,4.0,94,0.04,,,0.79,520,WeatherCatV1.14B232,2013-05-24 20:36:00,
2013-05-24 16:41:00,47.3,45.9,29.84,NE,44,1.0,3.0,95,0.07,,,0.80,520,WeatherCatV1.14B232,2013-05-24 20:41:00,
2013-05-24 16:46:00,47.1,45.7,29.84,NE,44,1.0,2.0,95,0.07,,,0.80,520,WeatherCatV1.14B232,2013-05-24 20:46:00,
2013-05-24 16:51:00,47.1,45.7,29.85,NE,44,1.0,7.0,95,0.05,,,0.81,520,WeatherCatV1.14B232,2013-05-24 20:51:00,
2013-05-24 16:56:00,46.9,45.5,29.85,NE,44,1.0,5.0,95,0.05,,,0.81,520,WeatherCatV1.14B232,2013-05-24 20:56:00,
2013-05-24 17:01:00,46.6,45.2,29.85,NE,44,2.0,2.0,95,0.05,,,0.81,520,WeatherCatV1.14B232,2013-05-24 21:01:00,
2013-05-24 17:06:00,46.5,45.1,29.85,NE,44,1.0,5.0,95,0.05,,,0.82,520,WeatherCatV1.14B232,2013-05-24 21:06:00,
2013-05-24 17:11:00,46.5,45.1,29.86,NE,44,1.0,4.0,95,0.05,,,0.82,520,WeatherCatV1.14B232,2013-05-24 21:11:00,
2013-05-24 17:16:00,46.4,45.0,29.86,NE,44,1.0,3.0,95,0.06,,,0.83,520,WeatherCatV1.14B232,2013-05-24 21:16:00,
2013-05-24 17:21:00,46.3,44.9,29.85,NE,44,1.0,2.0,95,0.06,,,0.83,520,WeatherCatV1.14B232,2013-05-24 21:21:00,
2013-05-24 17:26:00,46.3,44.9,29.85,NE,44,1.0,2.0,95,0.05,,,0.83,520,WeatherCatV1.14B232,2013-05-24 21:26:00,
2013-05-24 17:31:00,46.5,45.1,29.85,NE,44,1.0,2.0,95,0.04,,,0.84,520,WeatherCatV1.14B232,2013-05-24 21:31:00,
2013-05-24 17:36:00,46.4,45.0,29.85,NE,44,6.0,6.0,95,0.04,,,0.84,520,WeatherCatV1.14B232,2013-05-24 21:36:00,
2013-05-24 17:41:00,46.3,44.9,29.85,NE,44,2.0,3.0,95,0.04,,,0.84,520,WeatherCatV1.14B232,2013-05-24 21:41:00,
2013-05-24 17:46:00,46.1,44.7,29.85,NE,44,4.0,4.0,95,0.00,,,0.84,520,WeatherCatV1.14B232,2013-05-24 21:46:00,
2013-05-24 17:51:00,46.0,44.6,29.86,NE,44,2.0,2.0,95,0.00,,,0.84,520,WeatherCatV1.14B232,2013-05-24 21:51:00,
2013-05-24 17:56:00,45.9,44.3,29.86,NE,44,1.0,3.0,94,0.00,,,0.84,520,WeatherCatV1.14B232,2013-05-24 21:56:00,
2013-05-24 18:01:00,45.8,44.4,29.85,NE,44,2.0,7.0,95,0.00,,,0.84,520,WeatherCatV1.14B232,2013-05-24 22:01:00,
2013-05-24 18:06:00,45.7,44.3,29.86,NE,44,2.0,2.0,95,0.00,,,0.85,520,WeatherCatV1.14B232,2013-05-24 22:06:00,
2013-05-24 18:11:00,45.7,44.3,29.86,NE,44,1.0,4.0,95,0.00,,,0.85,520,WeatherCatV1.14B232,2013-05-24 22:11:00,
2013-05-24 18:16:00,45.5,44.2,29.87,NE,44,1.0,2.0,95,0.00,,,0.85,520,WeatherCatV1.14B232,2013-05-24 22:16:00,
2013-05-24 18:21:00,45.3,44.0,29.87,NE,44,1.0,4.0,95,0.00,,,0.85,520,WeatherCatV1.14B232,2013-05-24 22:21:00,
2013-05-24 18:26:00,45.1,43.5,29.87,NE,44,1.0,3.0,94,0.00,,,0.85,520,WeatherCatV1.14B232,2013-05-24 22:26:00,
2013-05-24 18:31:00,44.9,43.3,29.88,NE,44,1.0,5.0,94,0.00,,,0.85,520,WeatherCatV1.14B232,2013-05-24 22:31:00,
2013-05-24 18:36:00,44.8,43.2,29.88,NE,44,3.0,3.0,94,0.00,,,0.85,520,WeatherCatV1.14B232,2013-05-24 22:36:00,
2013-05-24 18:41:00,44.7,43.1,29.88,NE,44,2.0,2.0,94,0.00,,,0.85,520,WeatherCatV1.14B232,2013-05-24 22:41:00,
2013-05-24 18:46:00,44.7,43.1,29.88,NE,44,2.0,6.0,94,0.00,,,0.85,520,WeatherCatV1.14B232,2013-05-24 22:46:00,
2013-05-24 18:51:00,44.6,43.0,29.88,NE,44,0.0,2.0,94,0.00,,,0.86,520,WeatherCatV1.14B232,2013-05-24 22:51:00,
2013-05-24 18:56:00,44.6,43.0,29.89,NE,44,1.0,2.0,94,0.00,,,0.86,520,WeatherCatV1.14B232,2013-05-24 22:56:00,
2013-05-24 19:01:00,44.4,42.8,29.88,NE,44,0.0,3.0,94,0.00,,,0.86,520,WeatherCatV1.14B232,2013-05-24 23:01:00,
2013-05-24 19:06:00,44.4,42.8,29.88,NE,44,1.0,1.0,94,0.00,,,0.86,520,WeatherCatV1.14B232,2013-05-24 23:06:00,
2013-05-24 19:11:00,44.4,42.8,29.88,NE,44,1.0,3.0,94,0.00,,,0.86,520,WeatherCatV1.14B232,2013-05-24 23:11:00,
2013-05-24 19:16:00,44.2,42.6,29.88,NE,44,3.0,3.0,94,0.00,,,0.86,520,WeatherCatV1.14B232,2013-05-24 23:16:00,
2013-05-24 19:21:00,44.0,42.4,29.89,NE,44,3.0,4.0,94,0.00,,,0.86,520,WeatherCatV1.14B232,2013-05-24 23:21:00,
2013-05-24 19:26:00,44.1,42.5,29.89,NE,44,1.0,2.0,94,0.00,,,0.86,520,WeatherCatV1.14B232,2013-05-24 23:26:00,
2013-05-24 19:31:00,44.2,42.6,29.89,NE,44,3.0,5.0,94,0.00,,,0.86,520,WeatherCatV1.14B232,2013-05-24 23:31:00,
2013-05-24 19:36:00,44.1,42.5,29.89,NE,44,2.0,4.0,94,0.00,,,0.86,520,WeatherCatV1.14B232,2013-05-24 23:36:00,
2013-05-24 19:41:00,44.0,42.4,29.89,NE,44,1.0,3.0,94,0.00,,,0.86,520,WeatherCatV1.14B232,2013-05-24 23:41:00,
2013-05-24 19:46:00,43.9,42.3,29.90,NE,44,1.0,4.0,94,0.00,,,0.86,520,WeatherCatV1.14B232,2013-05-24 23:46:00,
2013-05-24 19:51:00,43.9,42.3,29.89,NE,44,1.0,2.0,94,0.00,,,0.86,520,WeatherCatV1.14B232,2013-05-24 23:51:00,
2013-05-24 19:56:00,43.8,42.2,29.90,NE,44,0.0,9.0,94,0.00,,,0.86,520,WeatherCatV1.14B232,2013-05-24 23:56:00,
2013-05-24 20:01:00,43.8,42.2,29.90,NE,44,2.0,6.0,94,0.00,,,0.86,520,WeatherCatV1.14B232,2013-05-25 00:01:00,
2013-05-24 20:06:00,43.7,41.8,29.90,NE,44,1.0,6.0,93,0.00,,,0.86,520,WeatherCatV1.14B232,2013-05-25 00:06:00,
2013-05-24 20:11:00,43.8,41.9,29.89,NE,44,5.0,6.0,93,0.00,,,0.86,520,WeatherCatV1.14B232,2013-05-25 00:11:00,
2013-05-24 20:16:00,43.7,41.5,29.88,NE,44,1.0,5.0,92,0.00,,,0.86,520,WeatherCatV1.14B232,2013-05-25 00:16:00,
2013-05-24 20:21:00,43.6,41.4,29.88,NE,44,0.0,4.0,92,0.00,,,0.86,520,WeatherCatV1.14B232,2013-05-25 00:21:00,
2013-05-24 20:26:00,43.6,41.4,29.89,NE,44,2.0,4.0,92,0.00,,,0.86,520,WeatherCatV1.14B232,2013-05-25 00:26:00,
2013-05-24 20:31:00,43.6,41.1,29.91,NE,44,1.0,3.0,91,0.00,,,0.86,520,WeatherCatV1.14B232,2013-05-25 00:31:00,
2013-05-24 20:36:00,43.7,41.2,29.92,NE,44,0.0,2.0,91,0.00,,,0.86,520,WeatherCatV1.14B232,2013-05-25 00:36:00,
2013-05-24 20:41:00,43.8,41.6,29.91,NE,44,1.0,1.0,92,0.00,,,0.86,520,WeatherCatV1.14B232,2013-05-25 00:41:00,
2013-05-24 20:46:00,43.7,41.5,29.91,NE,44,1.0,2.0,92,0.00,,,0.86,520,WeatherCatV1.14B232,2013-05-25 00:46:00,
2013-05-24 20:51:00,43.7,41.2,29.92,NE,44,2.0,3.0,91,0.00,,,0.86,520,WeatherCatV1.14B232,2013-05-25 00:51:00,
2013-05-24 20:56:00,43.7,41.0,29.92,NE,44,1.0,1.0,90,0.00,,,0.86,520,WeatherCatV1.14B232,2013-05-25 00:56:00,
2013-05-24 21:01:00,43.8,40.8,29.92,NE,44,1.0,4.0,89,0.00,,,0.86,520,WeatherCatV1.14B232,2013-05-25 01:01:00,
2013-05-24 21:06:00,43.9,41.2,29.91,NE,44,2.0,5.0,90,0.00,,,0.86,520,WeatherCatV1.14B232,2013-05-25 01:06:00,
2013-05-24 21:11:00,43.9,41.4,29.90,NE,44,1.0,3.0,91,0.00,,,0.86,520,WeatherCatV1.14B232,2013-05-25 01:11:00,
2013-05-24 21:16:00,43.9,41.2,29.90,NE,44,2.0,4.0,90,0.00,,,0.86,520,WeatherCatV1.14B232,2013-05-25 01:16:00,
2013-05-24 21:21:00,43.9,40.9,29.91,NE,44,2.0,2.0,89,0.00,,,0.86,520,WeatherCatV1.14B232,2013-05-25 01:21:00,
2013-05-24 21:26:00,44.0,41.0,29.91,NE,44,0.0,1.0,89,0.00,,,0.86,520,WeatherCatV1.14B232,2013-05-25 01:26:00,
2013-05-24 21:31:00,44.1,41.4,29.91,NE,44,1.0,3.0,90,0.00,,,0.86,520,WeatherCatV1.14B232,2013-05-25 01:31:00,
2013-05-24 21:36:00,44.1,41.1,29.91,NE,44,2.0,5.0,89,0.00,,,0.86,520,WeatherCatV1.14B232,2013-05-25 01:36:00,
2013-05-24 21:41:00,44.1,41.1,29.91,NE,44,1.0,4.0,89,0.00,,,0.86,520,WeatherCatV1.14B232,2013-05-25 01:41:00,
2013-05-24 21:46:00,44.2,41.2,29.91,NE,44,0.0,3.0,89,0.00,,,0.86,520,WeatherCatV1.14B232,2013-05-25 01:46:00,
2013-05-24 21:51:00,44.2,41.2,29.91,NE,44,2.0,4.0,89,0.00,,,0.86,520,WeatherCatV1.14B232,2013-05-25 01:51:00,
2013-05-24 21:56:00,44.1,41.1,29.91,NE,44,1.0,6.0,89,0.00,,,0.87,520,WeatherCatV1.14B232,2013-05-25 01:56:00,
2013-05-24 22:01:00,44.0,41.3,29.92,NE,44,2.0,6.0,90,0.00,,,0.87,520,WeatherCatV1.14B232,2013-05-25 02:01:00,
2013-05-24 22:06:00,43.9,41.4,29.93,NE,44,2.0,3.0,91,0.00,,,0.87,520,WeatherCatV1.14B232,2013-05-25 02:06:00,
2013-05-24 22:11:00,43.7,41.5,29.93,NE,44,1.0,2.0,92,0.00,,,0.87,520,WeatherCatV1.14B232,2013-05-25 02:11:00,
2013-05-24 22:16:00,43.6,41.4,29.94,NE,44,1.0,3.0,92,0.00,,,0.87,520,WeatherCatV1.14B232,2013-05-25 02:16:00,
2013-05-24 22:21:00,43.6,41.4,29.94,NE,44,1.0,1.0,92,0.00,,,0.88,520,WeatherCatV1.14B232,2013-05-25 02:21:00,
2013-05-24 22:26:00,43.6,41.7,29.94,NE,44,1.0,3.0,93,0.00,,,0.88,520,WeatherCatV1.14B232,2013-05-25 02:26:00,
2013-05-24 22:31:00,43.5,41.3,29.94,NE,44,0.0,2.0,92,0.00,,,0.88,520,WeatherCatV1.14B232,2013-05-25 02:31:00,
2013-05-24 22:36:00,43.6,41.4,29.94,NE,44,0.0,3.0,92,0.00,,,0.88,520,WeatherCatV1.14B232,2013-05-25 02:36:00,
2013-05-24 22:41:00,43.6,41.4,29.94,NE,44,2.0,4.0,92,0.00,,,0.88,520,WeatherCatV1.14B232,2013-05-25 02:41:00,
2013-05-24 22:46:00,43.6,41.4,29.92,NE,44,1.0,6.0,92,0.00,,,0.88,520,WeatherCatV1.14B232,2013-05-25 02:46:00,
2013-05-24 22:51:00,43.5,41.0,29.92,NE,44,0.0,4.0,91,0.00,,,0.88,520,WeatherCatV1.14B232,2013-05-25 02:51:00,
2013-05-24 22:55:00,43.5,41.3,29.92,NE,44,1.0,3.0,92,0.00,,,0.88,520,WeatherCatV1.14B232,2013-05-25 02:55:00,
2013-05-24 23:00:00,43.5,41.3,29.92,NE,44,1.0,3.0,92,0.00,,,0.88,520,WeatherCatV1.14B232,2013-05-25 03:00:00,
2013-05-24 23:05:00,43.4,41.0,29.93,NE,44,1.0,10.0,91,0.00,,,0.88,520,WeatherCatV1.14B232,2013-05-25 03:05:00,
2013-05-24 23:10:00,43.5,41.0,29.92,NE,44,0.0,3.0,91,0.00,,,0.88,520,WeatherCatV1.14B232,2013-05-25 03:10:00,
2013-05-24 23:15:00,43.5,41.0,29.93,NE,44,1.0,2.0,91,0.00,,,0.88,520,WeatherCatV1.14B232,2013-05-25 03:15:00,
2013-05-24 23:20:00,43.5,41.0,29.92,NE,44,0.0,3.0,91,0.00,,,0.88,520,WeatherCatV1.14B232,2013-05-25 03:20:00,
2013-05-24 23:25:00,43.6,41.1,29.92,NE,44,0.0,2.0,91,0.00,,,0.88,520,WeatherCatV1.14B232,2013-05-25 03:25:00,
2013-05-24 23:30:00,43.5,40.8,29.92,NE,44,2.0,5.0,90,0.00,,,0.88,520,WeatherCatV1.14B232,2013-05-25 03:30:00,
2013-05-24 23:35:00,43.5,40.8,29.92,NE,44,2.0,6.0,90,0.00,,,0.88,520,WeatherCatV1.14B232,2013-05-25 03:35:00,
2013-05-24 23:40:00,43.5,40.5,29.92,NE,44,2.0,4.0,89,0.00,,,0.88,520,WeatherCatV1.14B232,2013-05-25 03:40:00,
2013-05-24 23:45:00,43.6,41.1,29.92,NE,44,1.0,2.0,91,0.00,,,0.88,520,WeatherCatV1.14B232,2013-05-25 03:45:00,
2013-05-24 23:50:00,43.6,40.9,29.92,NE,44,0.0,1.0,90,0.00,,,0.88,520,WeatherCatV1.14B232,2013-05-25 03:50:00,
2013-05-24 23:55:00,43.5,41.0,29.92,NE,44,1.0,2.0,91,0.00,,,0.88,520,WeatherCatV1.14B232,2013-05-25 03:55:00,